ARSAT 1

Last updated on Mon Oct 20 2025 00:02:48 GMT+0000 (Coordinated Universal Time)

1 40272U 14062B 25292.25301714 .00000000 00000+0 00000+0 0 9999 2 40272 0.0116 261.1339 0001696 302.6303 203.5050 1.00268232 40192
UTC large
Height (km)
Speed (km/s)
/
Latitude / Longitude
Inclination (degrees)
Orbital Period (minutes)
Azimuth
Elevation
Range (km)
Doppler Factor

Next 0 passes for location: London (51.5072 / 0.1276)

Sorry there are no passes over London.